Hourly Data Report for June 05, 2006

TORONTO CITY
ONTARIO

43°40'00.000" N
79°24'00.000" W
112.50 m
6158355
71508
XTO

Download Data

Hourly Data (June 2006)
Hourly Data Report for June 5, 2006
TIME
LST
Temp Definition
°C
Dew Point Definition
°C
Rel Hum Definition
%
Precip. Amount Definition
mm

Wind Dir Definition
10's deg

Wind Spd Definition
km/h
Visibility Definition
km
Stn Press Definition
kPa
Hmdx Definition


Wind Chill Definition


Weather Definition


00:00 17.3 11.2 67   LegendMM LegendMM   99.84     LegendNANA
01:00 16.6 10.5 67   LegendMM LegendMM   99.81     LegendNANA
02:00 14.6 9.4 71   LegendMM LegendMM   99.76     LegendNANA
03:00 13.8 9.0 73   LegendMM LegendMM   99.73     LegendNANA
04:00 17.2 5.6 46   LegendMM LegendMM   99.73     LegendNANA
05:00 16.6 5.6 48   LegendMM LegendMM   99.80     LegendNANA
06:00 16.6 6.7 52   LegendMM LegendMM   99.85     LegendNANA
07:00 19.0 8.2 49   LegendMM LegendMM   99.85     LegendNANA
08:00 21.5 9.8 47   LegendMM LegendMM   99.87     LegendNANA
09:00 23.3 10.0 43   LegendMM LegendMM   99.88 25   LegendNANA
10:00 25.3 8.5 34   LegendMM LegendMM   99.85 26   LegendNANA
11:00 25.7 9.6 36   LegendMM LegendMM   99.86 27   LegendNANA
12:00 26.4 8.4 32   LegendMM LegendMM   99.85 27   LegendNANA
13:00 25.1 7.8 33   LegendMM LegendMM   99.85 25   LegendNANA
14:00 24.2 9.2 39   LegendMM LegendMM   99.87 25   LegendNANA
15:00 24.8 10.0 39   LegendMM LegendMM   99.83 26   LegendNANA
16:00 26.1 9.6 35   LegendMM LegendMM   99.79 27   LegendNANA
17:00 26.2 8.7 33   LegendMM LegendMM   99.78 27   LegendNANA
18:00 26.0 8.2 32   LegendMM LegendMM   99.78 26   LegendNANA
19:00 25.3 7.0 31   LegendMM LegendMM   99.82 25   LegendNANA
20:00 24.2 8.3 36   LegendMM LegendMM   99.85 25   LegendNANA
21:00 22.7 8.1 39   LegendMM LegendMM   99.92     LegendNANA
22:00 22.0 8.2 41   LegendMM LegendMM   99.93     LegendNANA
23:00 20.0 9.8 52   LegendMM LegendMM   99.93     LegendNANA

Notes on Data Quality.

Legend

  • E = Estimated
  • M = Missing
  • NA = Not Available*
  • [empty] = Indicates an unobserved value
Date modified: